Regional Weather Roundup
Issued by NWS

Home | Current Version | Previous Version | Graphics & Text | Print | Product List | Glossary Off
Versions: 1 2 3 4 5 6 7 8 9 10 11 12 13 14 15 16 17 18 19 20 21 22 23 24 25 26 27 28 29 30 31 32 33 34 35 36 37 38 39 40 41 42 43 44 45 46 47 48 49 50

000
ASUS43 KMPX 140510
RWRMN
WEATHER ROUNDUP FOR MINNESOTA
NATIONAL WEATHER SERVICE TWIN CITIES/CHANHASSEN MN
1200 AM CDT MON JUL 14 2014


NOTE: "FAIR" INDICATES FEW OR NO CLOUDS BELOW 12,000 FEET WITH NO
SIGNIFICANT WEATHER AND/OR OBSTRUCTIONS TO VISIBILITY. N/A MEANS
CURRENT SKY AND/OR WEATHER CONDITIONS ARE NOT AVAILABLE.

MNZ060>063-068>070-140600-
   Twin Cities Metro

CITY           SKY/WX    TMP DP  RH WIND       PRES   REMARKS
TWIN CITIES    PTCLDY    65  50  58 W6        29.90S
ST PAUL        CLEAR     64  50  60 W3        29.89F
CRYSTAL        MOCLDY    65  50  58 W6        29.89S
BLAINE         CLOUDY    64  54  68 W6        29.90S
LAKEVILLE      CLEAR     57  52  82 CALM      29.91S
EDEN PRAIRIE   CLEAR     62  51  67 W6        29.90S
SOUTH ST PAUL  CLEAR     64  51  62 W7        29.89S
LAKE ELMO      MOCLDY    55  54  94 CALM      29.90S
$$
MNZ001>005-007-008-013>017-022>024-027-028-140600-
   Northwest Minnesota

CITY           SKY/WX    TMP DP  RH WIND       PRES   REMARKS
BEMIDJI        MOCLDY    53  48  84 W8        29.88F
HALLOCK        CLOUDY    54  50  87 NW15G22   29.94R
ROSEAU         HVY RAIN  52  46  82 NW14G20   29.89R
WARROAD        DRIZZLE   48  46  93 NW13      29.88R
THIEF RVR FALL MOCLDY    54  48  82 NW14      29.93S
CROOKSTON      CLOUDY    55  52  88 N24G31    29.96R
FOSSTON        CLOUDY    55  46  71 W9        29.92S
DETROIT LAKES  PTCLDY    57  50  77 NW8       29.95S
MOORHEAD       CLOUDY    63  46  55 NW15      29.96R
PARK RAPIDS    MOCLDY    56  49  77 W6        29.91F
$$
MNZ006-009>011-018-025>026-140600-
   North Central Minnesota

CITY           SKY/WX    TMP DP  RH WIND       PRES   REMARKS
BAUDETTE       LGT RAIN  51  49  92 W7G17     29.84S FOG
FLAG ISLAND    LGT RAIN  52  48  87 NW20      29.83R
INTL FALLS     LGT RAIN  51  49  92 W10       29.80S
WASKISH        CLOUDY    54  48  82 W20       29.86R
BIG FORK       CLOUDY    54  50  87 W6        29.86S
LONGVILLE      CLEAR     52  50  93 W5        29.89F
GRAND RAPIDS   PTCLDY    54  48  82 W3        29.87F
CRANE LAKE     CLOUDY    52  48  87 SW3       29.82F
ORR            CLOUDY    52  46  82 W5        29.80F
COOK           MOCLDY    52  48  87 SW6       29.83F
$$
MNZ012-019>021-037-140600-
   Northeast Minnesota

CITY           SKY/WX    TMP DP  RH WIND       PRES   REMARKS
DULUTH         PTCLDY    54  47  77 W8        29.86F
ELY            PTCLDY    52  48  87 W7        29.82F
HIBBING        MOCLDY    52  49  89 W5        29.85F
EVELETH        CLEAR     50  50 100 SW5       29.86S
DULUTH HARBOR  CLOUDY    61  52  72 W15       29.86F
TWO HARBORS    MOCLDY    52  46  82 W3        29.83S
SILVER BAY     PTCLDY    52  52 100 CALM      29.82S
GRAND MARAIS     N/A     48  47  96 CALM      29.80F
G MARAIS ARPRT CLOUDY    50  45  81 W3        29.82S
$$
MNZ029>031-032-039>041-046>048-054>057-064-140600-
   West Central Minnesota

CITY           SKY/WX    TMP DP  RH WIND       PRES   REMARKS
FERGUS FALLS   CLOUDY    63  45  51 NW9       29.95S
WHEATON        MOCLDY    59  50  72 W5        29.99S
MORRIS         MOCLDY    57  50  77 NW5       29.95S
ALEXANDRIA     CLOUDY    62  48  60 NW8       29.95F
WADENA         MOCLDY    57  48  72 NW7       29.92S
GLENWOOD       PTCLDY    57  52  82 W6        29.95F
APPLETON       CLEAR     57  50  77 NW6       29.96R
BENSON         CLEAR     55  48  76 N3        29.96R
ORTONVILLE     CLEAR     63  48  59 NW7       29.97S
MADISON        CLEAR     59  52  77 W6        29.97S
WILLMAR        FAIR      61  48  63 NW6       29.96S
$$
MNZ033>034-036-042>043-049>051-058-059-140600-
   Central Minnesota

CITY           SKY/WX    TMP DP  RH WIND       PRES   REMARKS
ST CLOUD       CLOUDY    64  48  56 NW6       29.91S
SAUK CENTRE    FAIR      58  49  70 W5        29.94S
PAYNESVILLE    PTCLDY    51  48  90 SW3       29.94S
AITKIN         CLOUDY    57  52  82 CALM      29.89F
PINE RIVER       N/A     57  48  72 CALM      29.94F
BRAINERD       CLOUDY    63  48  58 NW7       29.92S
STAPLES        CLOUDY    57  50  77 CALM      29.93S
LONG PRAIRIE   CLOUDY    59  48  67 W5        29.94S
LITTLE FALLS   CLOUDY    55  50  82 CALM      29.92S
LITCHFIELD     CLEAR     64  50  59 NW6       29.94S
BUFFALO        PTCLDY    62  49  62 W5        29.92S
MAPLE LAKE     PTCLDY    60  51  72 CALM      29.93R
$$
MNZ037-044-045-052-053-140600-
   East Central Minnesota

CITY           SKY/WX    TMP DP  RH WIND       PRES   REMARKS
PRINCETON      CLOUDY    63  52  67 W5        29.91S
MORA           PTCLDY    59  46  63 W6        29.91S
CAMBRIDGE      MOCLDY    64  52  63 NW6       29.88S
RUSH CITY      CLOUDY    61  51  70 CALM      29.89S
MOOSE LAKE     MOCLDY    54  52  94 CALM      29.87F
HINCKLEY       CLOUDY    61  52  72 N9        29.89R
CLOQUET        PTCLDY    54  46  76 W5        29.87F
MCGREGOR       MOCLDY    54  52  94 CALM      29.89F
$$
MNZ071>073-080-081-089-090-097-098-140600-
   Southwest Minnesota

CITY           SKY/WX    TMP DP  RH WIND       PRES   REMARKS
MONTEVIDEO     CLEAR     61  50  67 NW6       29.97R
GRANITE FALLS  CLEAR     56  52  85 W5        29.98R
CANBY          CLEAR     57  50  76 W7        29.99S
MARSHALL       CLEAR     57  48  72 W9        29.96S
REDWOOD FALLS  CLEAR     61  50  67 W7        29.94F
OLIVIA         CLEAR     57  52  82 NW5       29.95R
PIPESTONE      CLEAR     63  48  59 N7        30.01S
WINDOM         CLEAR     57  52  82 W5        29.98S
WORTHINGTON    CLEAR     57  48  72 W5        30.00S
JACKSON        CLEAR     55  52  88 CALM      29.99S
TRACY          CLEAR     62  50  65 W6        29.98F
SLAYTON        CLEAR     57  49  76 CALM      30.00S
$$
MNZ065>067-074>077-082>085-091>093-140600-
   South Central Minnesota

CITY           SKY/WX    TMP DP  RH WIND       PRES   REMARKS
MANKATO        CLEAR     61  46  59 SW7       29.93F
NEW ULM        CLEAR     57  55  94 W6        29.94S
ST JAMES       CLEAR     59  52  77 W3        29.96F
FAIRMONT       CLEAR     61  48  63 NW5       29.96F
GLENCOE        CLEAR     63  48  58 W6        29.92S
FARIBAULT      CLEAR     61  50  67 SW5       29.93S
OWATONNA       CLEAR     57  52  82 SW7       29.94S
WASECA         CLEAR     55  46  71 S3        29.96S
ALBERT LEA     PTCLDY    61  52  72 CALM      29.95S
$$
MNZ078>079-086>088-094>096-140600-
   Southeast Minnesota

CITY           SKY/WX    TMP DP  RH WIND       PRES   REMARKS
ROCHESTER      CLEAR     58  52  80 W7        29.94F
RED WING       CLEAR     55  54  94 CALM      29.89S
STANTON        CLEAR     58  51  75 CALM      29.90S
DODGE CENTER   CLEAR     57  52  82 W6        29.94S
WINONA         CLEAR     63  55  77 CALM      29.91S
AUSTIN         CLEAR     63  46  55 NW2       29.94S
PRESTON        CLEAR     60  53  76 NW7       29.94S
$$
ABBREVIATIONS USED IN REMARKS
   TC - TEMPERATURES IN CELSIUS
  WCI - WIND CHILL INDEX
   HX - HEAT INDEX
  VSB - VISIBILITY
$$



USA.gov is the U.S. government's official web portal to all federal, state and local government web resources and services.